Location: Vancouver
(49.2500°N, 123.1330°W)
Time: 20:40:54
(UTC-08:00)

BREEZE-M DEB (TANK) - Visible Passes

Search period start: 09 February 2016 00:00
Search period end: 19 February 2016 00:00
Orbit: 265 x 13442 km, 49.6° (Epoch: 09 February)

Date Brightness Start Highest point End Pass type
(mag) Time Alt. Az. Time Alt. Az. Time Alt. Az.
09 Feb 7.2 01:30:03 10° WNW 02:21:11 37° S 03:17:53 10° S visible
09 Feb 4.3 18:05:21 10° SW 18:09:48 60° SE 18:26:22 11° ENE visible
09 Feb 6.2 22:25:13 10° WNW 22:37:15 81° SSW 23:50:18 10° SE visible
10 Feb 7.6 02:49:41 10° WNW 03:37:52 28° SW 04:25:46 10° SSW visible
10 Feb 4.8 19:21:54 10° WSW 19:27:47 87° SSE 19:41:34 26° E visible
10 Feb 6.6 23:42:41 10° WNW 00:41:41 30° SSE 01:23:19 10° SSE visible
11 Feb 8.0 04:54:26 15° WSW 04:54:26 15° WSW 05:15:16 10° SW visible
11 Feb 5.5 20:38:47 10° W 20:46:53 89° N 20:56:39 45° E visible
12 Feb 7.1 01:00:37 10° WNW 01:58:07 32° S 02:45:03 10° S visible
12 Feb 4.2 17:36:10 10° SW 17:40:18 55° SE 17:55:12 10° ENE visible
12 Feb 6.1 21:55:47 10° WNW 22:06:51 82° SSW 23:14:05 10° SE visible
13 Feb 7.6 02:19:42 10° WNW 03:14:26 26° SSW 03:54:21 10° SSW visible
13 Feb 4.6 18:52:21 10° WSW 18:57:46 86° SSE 19:14:05 19° E visible
13 Feb 6.6 23:12:53 10° WNW 00:17:54 24° SSE 00:48:03 10° SSE visible
14 Feb 7.9 04:30:35 14° SW 04:30:35 14° SW 04:46:17 10° SW visible
14 Feb 5.3 20:08:54 10° W 20:16:20 88° N 20:28:55 37° E visible
15 Feb 7.0 00:30:23 10° WNW 01:33:56 27° S 02:11:06 10° S visible
15 Feb 5.9 21:25:32 10° WNW 21:35:42 83° SSW 21:43:40 57° ESE visible
16 Feb 7.5 01:48:55 10° WNW 02:49:48 23° SSW 03:21:57 10° SSW visible
16 Feb 4.4 18:22:00 10° WSW 18:26:59 84° SSE 18:45:54 13° E visible
16 Feb 6.6 22:42:17 10° WNW 22:55:58 69° SSW 00:11:36 10° SSE visible
17 Feb 7.9 04:05:30 13° SW 04:05:30 13° SW 04:16:21 10° SW visible
17 Feb 5.1 19:38:13 10° W 19:45:01 88° N 20:00:31 29° E visible
17 Feb 7.0 23:59:21 10° WNW 01:08:27 23° S 01:36:01 10° SSE visible
18 Feb 5.8 20:54:31 10° WNW 21:03:48 84° SSW 21:15:03 47° ESE visible
